When you browse on this site, cookies collect data to enhance your experience and personalize the content and advertising you see.
Visit our Privacy Policy to learn more. By continuing to use the site, you agree to this use of cookies and data.
  • In Latvia
  • List of Countries
  • For 7 days
  • Water Temperature
  • Satellite Maps
  • Weather Map
  • Weather Widgets
  • user-avatar
    Login

    Hourly Weather Lvovka

    Today, 18 June, Tuesday

    Time Temperature Precipitation Wind Pressure Humidity
    00:00 +15°C° 0 mm 2 mps 746 mmHg 80%
    01:00 +16°C° 0 mm 2 mps 746 mmHg 80%
    02:00 +16°C° 0 mm 2 mps 746 mmHg 79%
    03:00 +16°C° 0 mm 2 mps 746 mmHg 78%
    04:00 +17°C° 0 mm 2 mps 746 mmHg 78%
    05:00 +17°C° 0 mm 2 mps 746 mmHg 79%
    06:00 +17°C° 0 mm 2 mps 746 mmHg 79%
    07:00 +19°C° 0.1 mm 2 mps 747 mmHg 73%
    08:00 +20°C° 0.1 mm 2 mps 747 mmHg 68%
    09:00 +23°C° 0.1 mm 2 mps 747 mmHg 63%
    10:00 +24°C° 0.3 mm 2 mps 746 mmHg 61%
    11:00 +24°C° 0.3 mm 2 mps 746 mmHg 59%
    12:00 +25°C° 0.3 mm 2 mps 746 mmHg 58%
    13:00 +25°C° 0.3 mm 2 mps 746 mmHg 58%
    14:00 +25°C° 0.3 mm 2 mps 746 mmHg 59%
    15:00 +25°C° 0.3 mm 3 mps 745 mmHg 59%
    16:00 +25°C° 0.3 mm 3 mps 745 mmHg 65%
    17:00 +24°C° 0.3 mm 2 mps 745 mmHg 71%
    18:00 +23°C° 0.3 mm 2 mps 745 mmHg 77%
    19:00 +21°C° 0.4 mm 2 mps 745 mmHg 80%
    20:00 +19°C° 0.4 mm 2 mps 745 mmHg 83%
    21:00 +17°C° 0.4 mm 2 mps 745 mmHg 86%
    22:00 +17°C° 0 mm 2 mps 745 mmHg 88%
    23:00 +16°C° 0 mm 2 mps 745 mmHg 89%

    Tomorrow, 19 June, Wednesday

    Time Temperature Precipitation Wind Pressure Humidity
    00:00 +16°C° 0 mm 2 mps 745 mmHg 91%
    01:00 +16°C° 0 mm 2 mps 745 mmHg 91%
    02:00 +16°C° 0 mm 2 mps 745 mmHg 91%
    03:00 +15°C° 0 mm 2 mps 744 mmHg 92%
    04:00 +16°C° 0 mm 2 mps 745 mmHg 89%
    05:00 +17°C° 0 mm 2 mps 745 mmHg 86%
    06:00 +18°C° 0 mm 2 mps 745 mmHg 84%
    07:00 +20°C° 0.1 mm 2 mps 745 mmHg 78%
    08:00 +21°C° 0.1 mm 2 mps 745 mmHg 72%
    09:00 +24°C° 0.1 mm 2 mps 745 mmHg 66%
    10:00 +24°C° 0.1 mm 2 mps 745 mmHg 62%
    11:00 +25°C° 0.1 mm 3 mps 745 mmHg 58%
    12:00 +26°C° 0.1 mm 3 mps 745 mmHg 53%
    13:00 +26°C° 0.1 mm 3 mps 745 mmHg 55%
    14:00 +26°C° 0.1 mm 3 mps 745 mmHg 56%
    15:00 +26°C° 0.1 mm 4 mps 745 mmHg 57%
    16:00 +25°C° 0 mm 3 mps 745 mmHg 61%
    17:00 +25°C° 0 mm 3 mps 745 mmHg 65%
    18:00 +24°C° 0 mm 3 mps 745 mmHg 69%
    19:00 +22°C° 0 mm 3 mps 745 mmHg 74%
    20:00 +20°C° 0 mm 3 mps 746 mmHg 79%
    21:00 +18°C° 0 mm 3 mps 746 mmHg 84%
    22:00 +18°C° 0 mm 3 mps 746 mmHg 86%
    23:00 +17°C° 0 mm 3 mps 746 mmHg 88%

    Day after tomorrow, 20 June, Thursday

    Time Temperature Precipitation Wind Pressure Humidity
    00:00 +17°C° 0 mm 3 mps 746 mmHg 90%
    01:00 +16°C° 0 mm 3 mps 747 mmHg 92%
    02:00 +16°C° 0 mm 3 mps 747 mmHg 93%
    03:00 +16°C° 0 mm 3 mps 747 mmHg 94%
    04:00 +17°C° 0 mm 3 mps 747 mmHg 91%
    05:00 +18°C° 0 mm 3 mps 748 mmHg 87%
    06:00 +19°C° 0 mm 3 mps 748 mmHg 84%
    07:00 +20°C° 0 mm 3 mps 748 mmHg 77%
    08:00 +22°C° 0 mm 3 mps 748 mmHg 71%
    09:00 +24°C° 0 mm 3 mps 748 mmHg 65%
    10:00 +25°C° 0 mm 3 mps 748 mmHg 62%
    11:00 +26°C° 0 mm 3 mps 748 mmHg 58%
    12:00 +27°C° 0 mm 3 mps 749 mmHg 55%
    13:00 +27°C° 0 mm 3 mps 748 mmHg 54%
    14:00 +27°C° 0 mm 3 mps 748 mmHg 54%
    15:00 +27°C° 0 mm 3 mps 748 mmHg 53%
    16:00 +27°C° 0 mm 3 mps 749 mmHg 57%
    17:00 +26°C° 0 mm 3 mps 749 mmHg 61%
    18:00 +26°C° 0 mm 2 mps 749 mmHg 66%
    19:00 +24°C° 0 mm 2 mps 749 mmHg 69%
    20:00 +21°C° 0 mm 2 mps 749 mmHg 72%
    21:00 +20°C° 0 mm 2 mps 749 mmHg 74%
    22:00 +19°C° 0 mm 2 mps 749 mmHg 76%
    23:00 +18°C° 0 mm 2 mps 750 mmHg 78%

    21 June, Friday

    Time Temperature Precipitation Wind Pressure Humidity
    00:00 +18°C° 0 mm 2 mps 750 mmHg 80%
    01:00 +18°C° 0 mm 2 mps 750 mmHg 81%
    02:00 +17°C° 0 mm 2 mps 750 mmHg 82%
    03:00 +17°C° 0 mm 2 mps 750 mmHg 83%
    04:00 +18°C° 0 mm 2 mps 751 mmHg 81%
    05:00 +19°C° 0 mm 2 mps 751 mmHg 79%
    06:00 +20°C° 0 mm 2 mps 751 mmHg 76%
    07:00 +21°C° 0 mm 2 mps 751 mmHg 71%
    08:00 +24°C° 0 mm 2 mps 751 mmHg 66%
    09:00 +25°C° 0 mm 3 mps 751 mmHg 61%
    10:00 +26°C° 0 mm 2 mps 751 mmHg 57%
    11:00 +27°C° 0 mm 2 mps 751 mmHg 54%
    12:00 +27°C° 0 mm 2 mps 752 mmHg 51%
    13:00 +28°C° 0 mm 2 mps 751 mmHg 50%
    14:00 +28°C° 0 mm 2 mps 751 mmHg 50%
    15:00 +28°C° 0 mm 2 mps 751 mmHg 49%
    16:00 +27°C° 0 mm 2 mps 751 mmHg 54%
    17:00 +27°C° 0 mm 2 mps 751 mmHg 60%
    18:00 +26°C° 0 mm 2 mps 751 mmHg 65%
    19:00 +24°C° 0 mm 2 mps 751 mmHg 69%
    20:00 +23°C° 0 mm 1 mps 751 mmHg 72%
    21:00 +21°C° 0 mm 1 mps 752 mmHg 76%
    22:00 +20°C° 0 mm 1 mps 752 mmHg 78%
    23:00 +18°C° 0 mm 0 mps 752 mmHg 80%

    22 June, Saturday

    Time Temperature Precipitation Wind Pressure Humidity
    00:00 +17°C° 0 mm 0 mps 752 mmHg 81%
    01:00 +17°C° 0 mm 0 mps 752 mmHg 82%
    02:00 +16°C° 0 mm 0 mps 752 mmHg 83%
    03:00 +16°C° 0 mm 0 mps 752 mmHg 84%
    04:00 +17°C° 0 mm 0 mps 752 mmHg 80%
    05:00 +19°C° 0 mm 0 mps 753 mmHg 77%
    06:00 +20°C° 0 mm 0 mps 753 mmHg 74%
    07:00 +21°C° 0 mm 0 mps 753 mmHg 69%
    08:00 +23°C° 0 mm 0 mps 753 mmHg 64%
    09:00 +24°C° 0 mm 0 mps 753 mmHg 60%
    10:00 +25°C° 0 mm 0 mps 753 mmHg 55%
    11:00 +26°C° 0 mm 0 mps 753 mmHg 51%
    12:00 +27°C° 0 mm 0 mps 753 mmHg 46%
    13:00 +29°C° 0 mm 1 mps 752 mmHg 46%
    14:00 +29°C° 0 mm 1 mps 752 mmHg 46%
    15:00 +28°C° 0 mm 1 mps 752 mmHg 45%
    16:00 +28°C° 0 mm 1 mps 752 mmHg 49%
    17:00 +28°C° 0 mm 1 mps 752 mmHg 53%
    18:00 +28°C° 0 mm 1 mps 751 mmHg 57%
    19:00 +26°C° 0 mm 1 mps 752 mmHg 59%
    20:00 +24°C° 0 mm 1 mps 752 mmHg 60%
    21:00 +22°C° 0 mm 1 mps 752 mmHg 62%
    22:00 +21°C° 0 mm 1 mps 752 mmHg 64%
    23:00 +20°C° 0 mm 1 mps 752 mmHg 67%

    23 June, Sunday

    Time Temperature Precipitation Wind Pressure Humidity
    00:00 +20°C° 0 mm 1 mps 752 mmHg 69%
    01:00 +19°C° 0 mm 1 mps 752 mmHg 71%
    02:00 +19°C° 0 mm 1 mps 752 mmHg 72%
    03:00 +19°C° 0 mm 1 mps 752 mmHg 74%
    04:00 +20°C° 0 mm 1 mps 752 mmHg 72%
    05:00 +21°C° 0 mm 1 mps 752 mmHg 70%
    06:00 +22°C° 0 mm 1 mps 752 mmHg 69%
    07:00 +24°C° 0 mm 1 mps 752 mmHg 64%
    08:00 +26°C° 0 mm 1 mps 752 mmHg 60%
    09:00 +27°C° 0 mm 1 mps 752 mmHg 55%
    10:00 +28°C° 0 mm 1 mps 752 mmHg 51%
    11:00 +29°C° 0 mm 1 mps 752 mmHg 47%
    12:00 +30°C° 0 mm 1 mps 752 mmHg 43%
    13:00 +30°C° 0 mm 1 mps 752 mmHg 43%
    14:00 +30°C° 0 mm 1 mps 751 mmHg 42%
    15:00 +30°C° 0 mm 1 mps 751 mmHg 41%
    16:00 +30°C° 0 mm 1 mps 751 mmHg 46%
    17:00 +29°C° 0 mm 1 mps 751 mmHg 51%
    18:00 +29°C° 0 mm 1 mps 751 mmHg 56%
    19:00 +25°C° 0 mm 0 mps 751 mmHg 58%
    20:00 +23°C° 0 mm 0 mps 751 mmHg 61%
    21:00 +21°C° 0 mm 0 mps 751 mmHg 63%
    22:00 +20°C° 0 mm 0 mps 751 mmHg 65%
    23:00 +20°C° 0 mm 0 mps 751 mmHg 66%
    Show more